TimeEST,TemperatureF,Dew PointF,Humidity,Sea Level PressureIn,VisibilityMPH,Wind Direction,Wind SpeedMPH,Gust SpeedMPH,PrecipitationIn,Events,Conditions,WindDirDegrees,DateUTC
12:53 AM,71.1,50.0,47,30.18,10.0,ENE,6.9,-,N/A,,Mostly Cloudy,70,2012-11-10 05:53:00
1:53 AM,71.1,50.0,47,30.17,10.0,East,11.5,-,N/A,,Mostly Cloudy,80,2012-11-10 06:53:00
2:53 AM,71.1,50.0,47,30.17,10.0,East,8.1,-,N/A,,Mostly Cloudy,80,2012-11-10 07:53:00
3:53 AM,71.1,52.0,51,30.17,10.0,East,6.9,-,N/A,,Mostly Cloudy,80,2012-11-10 08:53:00
4:53 AM,71.1,51.1,49,30.19,10.0,NNE,8.1,-,N/A,,Mostly Cloudy,30,2012-11-10 09:53:00
5:53 AM,71.1,48.9,45,30.20,10.0,North,4.6,-,N/A,,Mostly Cloudy,10,2012-11-10 10:53:00
6:53 AM,72.0,48.9,44,30.21,10.0,ENE,8.1,-,N/A,,Mostly Cloudy,60,2012-11-10 11:53:00
7:53 AM,73.0,52.0,48,30.23,10.0,ENE,8.1,20.7,N/A,,Mostly Cloudy,60,2012-11-10 12:53:00
8:53 AM,73.0,52.0,48,30.25,10.0,ENE,12.7,-,N/A,,Mostly Cloudy,70,2012-11-10 13:53:00
9:53 AM,73.9,53.1,48,30.26,10.0,ENE,9.2,-,N/A,,Mostly Cloudy,60,2012-11-10 14:53:00
10:53 AM,75.9,52.0,43,30.26,10.0,ENE,12.7,-,N/A,,Mostly Cloudy,60,2012-11-10 15:53:00
11:53 AM,75.0,53.1,46,30.25,10.0,ENE,9.2,-,N/A,,Mostly Cloudy,60,2012-11-10 16:53:00
12:53 PM,73.9,55.9,53,30.22,10.0,NNE,9.2,-,N/A,,Mostly Cloudy,30,2012-11-10 17:53:00
1:53 PM,75.9,55.0,48,30.20,10.0,East,12.7,-,0.00,,Mostly Cloudy,80,2012-11-10 18:53:00
2:53 PM,75.9,52.0,43,30.20,10.0,ENE,12.7,23.0,N/A,,Mostly Cloudy,70,2012-11-10 19:53:00
3:53 PM,75.0,55.0,50,30.20,10.0,ENE,16.1,-,N/A,,Mostly Cloudy,70,2012-11-10 20:53:00
4:53 PM,73.0,53.1,49,30.20,10.0,East,11.5,21.9,N/A,,Mostly Cloudy,80,2012-11-10 21:53:00
5:53 PM,73.0,51.1,46,30.22,10.0,ENE,16.1,-,N/A,,Mostly Cloudy,70,2012-11-10 22:53:00
6:53 PM,73.0,54.0,51,30.22,10.0,ENE,12.7,21.9,N/A,,Mostly Cloudy,70,2012-11-10 23:53:00
7:53 PM,73.0,52.0,48,30.23,10.0,East,15.0,-,N/A,,Scattered Clouds,80,2012-11-11 00:53:00
8:53 PM,73.0,55.9,55,30.24,10.0,ENE,13.8,-,N/A,,Mostly Cloudy,70,2012-11-11 01:53:00
9:53 PM,73.9,53.1,48,30.24,10.0,East,15.0,24.2,N/A,,Mostly Cloudy,80,2012-11-11 02:53:00
10:53 PM,73.0,53.1,49,30.24,10.0,East,9.2,-,N/A,,Mostly Cloudy,80,2012-11-11 03:53:00
11:53 PM,73.0,57.0,57,30.23,10.0,ENE,11.5,23.0,N/A,,Mostly Cloudy,70,2012-11-11 04:53:00